Location: Bonham
(33.5773°N, 96.1783°W)
Time: 22:56:16
(UTC+00:00)

Chandra Rocket (1) - Visible Passes

Search period start: 18 November 2025 00:00
Search period end: 28 November 2025 00:00
Orbit: 254 x 10556 km, 28.5° (Epoch: 17 November)

Date Brightness Start Highest point End Pass type
(mag) Time Alt. Az. Time Alt. Az. Time Alt. Az.
18 Nov 5.1 09:37:42 16° ESE 09:37:42 16° ESE 09:39:30 10° ESE visible
19 Nov 3.7 10:22:42 37° SE 10:22:42 37° SE 10:29:23 10° ESE visible
20 Nov 3.3 11:07:36 35° SW 11:08:55 42° S 11:19:56 10° ESE visible
21 Nov 4.2 11:52:22 15° WSW 11:56:29 38° S 12:11:08 10° SE visible
23 Nov 5.0 09:49:31 17° ESE 09:49:31 17° ESE 09:51:34 10° ESE visible
24 Nov 6.3 03:02:19 10° S 03:03:22 10° S 03:03:22 10° S visible
24 Nov 3.8 10:33:58 32° SSE 10:33:58 32° SSE 10:40:31 10° ESE visible
25 Nov 3.9 11:18:18 24° SW 11:20:11 30° S 11:29:51 10° SE visible
26 Nov 4.6 12:02:42 10° WSW 12:07:26 26° S 12:19:25 10° SE visible
27 Nov 6.2 01:29:16 10° SSW 01:37:50 13° S 01:43:17 10° SSE visible
